Find Starlink 11258

NORAD ID: 62598 Int'l Des: 2025-008 Owner: SPXS Country: US Constellation: starlink operational
別名: STARLINK-11258 [DTC] celestrak
LEOCIRCULAR

現在のビュー

3D地球を読み込み中...

About Starlink 11258

Starlink 11258 (NORAD 62598) is a starlink constellation satellite (v2 mini d2c) launched Jan 13, 2025 by SPXS of US. It operates in LEO, CIRCULAR orbit with a mass of 960.00 kg.

次回通過

Passes for default location (London). Set your location on the main map for personalized predictions.

高度履歴

Loading altitude history...

軌道要素

1 62598U 25008M 26262.00002315 -.00044111 00000-0 -34159-3 0 9992
2 62598 43.0008 40.8567 0001676 268.3860 248.2806 15.70874110 5953
Epoch: Sep 19, 2026 • Age: 59 hours

現在のステータス

高度 367.8 km
遠地点 / 近地点 N/A
速度 7.69 km/s
衛星直下点 -39.91°S, 164.34°E
打ち上げ日 Jan 13, 2025
運用期間 1.6 years
タイプ internet

技術仕様

分類 Payload
質量 960.00 kg
乾燥質量 910.00 kg
長さ 0.30 m
スパン 29.00 m
形状 ? Box + pan
製造者 SPXS
バスタイプ Starlink V2MD
フェーズステータス In Orbit
所有者/国 SPXS/US

Most Searched